timestamp,surface_pressure_avg,surface_temp_avg,battery_voltage,lat,long
2021-07-23 00:09:01+00:00,355.8929,14.3,13.13,47.84626,-54.09684
2021-07-23 00:19:00+00:00,348.2313,14.3,12.81,47.84626,-54.09684
2021-07-23 00:29:00+00:00,336.0247,14.4,12.81,47.84626,-54.09684
2021-07-23 00:39:00+00:00,333.083,14.5,12.81,47.84626,-54.09684
2021-07-23 00:49:00+00:00,326.8214,14.55,12.81,47.84626,-54.09684
2021-07-23 00:59:00+00:00,317.1363,14.6,12.81,47.84626,-54.09684
2021-07-23 01:09:00+00:00,304.443,14.6,12.81,47.84626,-54.09684
2021-07-23 01:19:00+00:00,300.2147,14.6,12.73,47.84626,-54.09684
2021-07-23 01:29:00+00:00,296.303,14.6,12.73,47.84626,-54.09684
2021-07-23 01:39:00+00:00,286.0613,14.6,12.73,47.84626,-54.09684
2021-07-23 01:49:00+00:00,271.4198,14.65,12.73,47.84626,-54.09684
2021-07-23 01:59:00+00:00,266.0864,14.66,12.73,47.84626,-54.09684
2021-07-23 02:09:00+00:00,258.7281,14.6,12.73,47.84626,-54.09684
2021-07-23 02:19:00+00:00,249.2848,14.6,12.73,47.84626,-54.09684
2021-07-23 02:29:00+00:00,240.8231,14.6,12.73,47.84626,-54.09684
2021-07-23 02:39:00+00:00,235.1097,14.6,12.73,47.84626,-54.09684
2021-07-23 02:49:00+00:00,230.0948,14.6,12.73,47.84626,-54.09684
2021-07-23 02:59:00+00:00,221.9264,14.6,12.73,47.84626,-54.09684
2021-07-23 03:09:00+00:00,216.6748,14.6,12.73,47.84626,-54.09684
2021-07-23 03:19:00+00:00,217.6564,14.57,12.73,47.84626,-54.09684
2021-07-23 03:29:00+00:00,216.2081,14.5,12.73,47.84626,-54.09684
2021-07-23 03:39:00+00:00,208.1448,14.5,12.73,47.84626,-54.09684
2021-07-23 03:49:00+00:00,204.2081,14.5,12.73,47.84626,-54.09684
2021-07-23 03:59:00+00:00,207.0614,14.4,12.73,47.84626,-54.09684
2021-07-23 04:09:00+00:00,204.7898,14.4,12.73,47.84626,-54.09684
2021-07-23 04:19:01+00:00,200.1148,14.4,12.73,47.84626,-54.09684
2021-07-23 04:29:01+00:00,198.9548,14.4,12.73,47.84626,-54.09684
2021-07-23 04:39:01+00:00,198.0965,14.4,12.73,47.84626,-54.09684
2021-07-23 04:49:01+00:00,193.2181,14.51,12.73,47.84626,-54.09684
2021-07-23 04:59:01+00:00,191.3031,14.9,12.73,47.84626,-54.09684
2021-07-23 05:09:01+00:00,192.3831,14.65,12.73,47.84626,-54.09684
2021-07-23 05:19:00+00:00,189.5048,14.4,12.73,47.84626,-54.09684
2021-07-23 05:29:00+00:00,191.8232,14.4,12.73,47.84626,-54.09684
2021-07-23 05:39:00+00:00,194.6747,14.4,12.73,47.84626,-54.09684
2021-07-23 05:49:00+00:00,196.2015,14.3,12.73,47.84626,-54.09684
2021-07-23 05:59:00+00:00,199.7381,14.25,12.73,47.84626,-54.09684
2021-07-23 06:09:00+00:00,201.8365,14.33,12.73,47.84626,-54.09684
2021-07-23 06:19:00+00:00,204.8616,14.3,12.65,47.84626,-54.09684
2021-07-23 06:29:00+00:00,205.5031,14.2,12.65,47.84626,-54.09684
2021-07-23 06:39:00+00:00,204.5381,14.18,12.65,47.84626,-54.09684
2021-07-23 06:49:00+00:00,211.1981,14.2,12.65,47.84626,-54.09684
2021-07-23 06:59:00+00:00,218.0081,14.2,12.65,47.84626,-54.09684
2021-07-23 07:09:00+00:00,215.5131,14.2,12.65,47.84626,-54.09684
2021-07-23 07:19:01+00:00,220.4248,14.2,12.65,47.84626,-54.09684
2021-07-23 07:29:01+00:00,234.6347,14.2,12.65,47.84626,-54.09684
2021-07-23 07:39:01+00:00,241.1863,14.2,12.65,47.84626,-54.09684
2021-07-23 07:49:01+00:00,244.6465,14.2,12.65,47.84626,-54.09684
2021-07-23 07:59:01+00:00,255.8681,14.09,12.65,47.84626,-54.09684
2021-07-23 08:09:01+00:00,262.1331,14.05,12.65,47.84626,-54.09684
2021-07-23 08:19:00+00:00,265.7131,14.1,12.65,47.84626,-54.09684
2021-07-23 08:29:00+00:00,274.4581,14.16,12.65,47.84626,-54.09684
2021-07-23 08:39:00+00:00,285.6614,14.2,12.65,47.84626,-54.09684
2021-07-23 08:49:00+00:00,288.0814,14.26,12.65,47.84626,-54.09684
2021-07-23 08:59:00+00:00,289.3614,14.3,12.65,47.84626,-54.09684
2021-07-23 09:09:00+00:00,298.9163,14.3,12.65,47.84626,-54.09684
2021-07-23 09:19:01+00:00,307.6263,14.27,12.65,47.84626,-54.09684
2021-07-23 09:29:01+00:00,311.453,14.3,12.65,47.84626,-54.09684
2021-07-23 09:39:01+00:00,317.1113,14.2,12.65,47.84626,-54.09684
2021-07-23 09:49:01+00:00,326.8246,14.17,12.65,47.84626,-54.09684
2021-07-23 09:59:01+00:00,335.2679,14.19,12.65,47.84626,-54.09684
2021-07-23 10:09:01+00:00,332.7614,14.19,12.65,47.84626,-54.09684
2021-07-23 10:19:01+00:00,334.5413,14.2,12.65,47.84626,-54.09684
2021-07-23 10:29:01+00:00,338.5246,14.19,12.65,47.84626,-54.09684
2021-07-23 10:39:01+00:00,338.7113,14.1,12.65,47.84626,-54.09684
2021-07-23 10:49:01+00:00,337.173,14.1,12.65,47.84626,-54.09684
2021-07-23 10:59:01+00:00,340.5597,14.1,12.65,47.84626,-54.09684
2021-07-23 11:09:01+00:00,344.1063,14.1,12.65,47.84626,-54.09684
2021-07-23 11:19:01+00:00,343.3513,14.09,12.73,47.84626,-54.09684
2021-07-23 11:29:01+00:00,341.3813,14.2,12.73,47.84626,-54.09684
2021-07-23 11:39:01+00:00,339.1979,14.13,12.73,47.84626,-54.09684
2021-07-23 11:49:01+00:00,341.24300000000005,14.0,12.73,47.84626,-54.09684
2021-07-23 11:59:01+00:00,339.0679,13.9,12.73,47.84626,-54.09684
2021-07-23 12:09:01+00:00,330.7596,13.96,12.73,47.84626,-54.09684
2021-07-23 12:19:01+00:00,327.7413,14.0,13.21,47.84626,-54.09684
2021-07-23 12:29:01+00:00,328.3829,13.9,13.21,47.84626,-54.09684
2021-07-23 12:39:01+00:00,322.6063,13.9,13.21,47.84626,-54.09684
2021-07-23 12:49:01+00:00,311.3397,14.17,13.21,47.84626,-54.09684
2021-07-23 12:59:01+00:00,306.9313,14.2,13.21,47.84626,-54.09684
2021-07-23 13:09:01+00:00,306.6447,14.0,13.21,47.84626,-54.09684
2021-07-23 13:19:00+00:00,298.7147,14.1,13.37,47.84626,-54.09684
2021-07-23 13:29:00+00:00,287.2997,14.3,13.37,47.84626,-54.09684
2021-07-23 13:39:00+00:00,282.0797,14.3,13.37,47.84626,-54.09684
2021-07-23 13:49:00+00:00,274.6797,14.2,13.37,47.84626,-54.09684
2021-07-23 13:59:00+00:00,263.7797,14.29,13.37,47.84626,-54.09684
2021-07-23 14:09:00+00:00,252.8047,14.36,13.37,47.84626,-54.09684
2021-07-23 14:19:01+00:00,246.8514,14.39,13.68,47.84626,-54.09684
2021-07-23 14:29:01+00:00,238.4581,14.39,13.68,47.84626,-54.09684
2021-07-23 14:39:01+00:00,229.6598,14.4,13.68,47.84626,-54.09684
2021-07-23 14:49:01+00:00,221.0114,14.4,13.68,47.84626,-54.09684
2021-07-23 14:59:01+00:00,214.1031,14.43,13.68,47.84626,-54.09684
2021-07-23 15:09:01+00:00,207.0081,14.45,13.68,47.84626,-54.09684
2021-07-23 15:19:01+00:00,196.9564,14.47,14.24,47.84626,-54.09684
2021-07-23 15:29:01+00:00,190.8381,14.49,14.24,47.84626,-54.09684
2021-07-23 15:39:01+00:00,189.7348,14.5,14.24,47.84626,-54.09684
2021-07-23 15:49:01+00:00,186.2432,14.5,14.24,47.84626,-54.09684
2021-07-23 15:59:01+00:00,181.1198,14.5,14.24,47.84626,-54.09684
2021-07-23 16:09:01+00:00,180.0431,14.5,14.24,47.84626,-54.09684
2021-07-23 16:19:00+00:00,183.0231,14.5,14.24,47.84626,-54.09684
2021-07-23 16:29:00+00:00,184.4148,14.5,14.24,47.84626,-54.09684
2021-07-23 16:39:00+00:00,182.4281,14.5,14.24,47.84626,-54.09684
2021-07-23 16:49:00+00:00,182.4248,14.53,14.24,47.84626,-54.09684
2021-07-23 16:59:00+00:00,184.1098,14.57,14.24,47.84626,-54.09684
2021-07-23 17:09:00+00:00,181.6065,14.59,14.24,47.84626,-54.09684
2021-07-23 17:19:01+00:00,178.9215,14.59,14.16,47.84626,-54.09684
2021-07-23 17:29:01+00:00,183.2048,14.56,14.16,47.84626,-54.09684
2021-07-23 17:39:01+00:00,189.6314,14.51,14.16,47.84626,-54.09684
2021-07-23 17:49:01+00:00,189.3514,14.5,14.16,47.84626,-54.09684
2021-07-23 17:59:01+00:00,190.0798,14.5,14.16,47.84626,-54.09684
2021-07-23 18:09:01+00:00,197.5015,14.5,14.16,47.84626,-54.09684
2021-07-23 18:19:00+00:00,199.2715,14.5,14.08,47.84626,-54.09684
2021-07-23 18:29:00+00:00,198.7431,14.49,14.08,47.84626,-54.09684
2021-07-23 18:39:00+00:00,209.5031,14.43,14.08,47.84626,-54.09684
2021-07-23 18:49:00+00:00,216.5015,14.4,14.08,47.84626,-54.09684
2021-07-23 18:59:00+00:00,214.4781,14.44,14.08,47.84626,-54.09684
2021-07-23 19:09:00+00:00,218.6548,14.4,14.08,47.84626,-54.09684
2021-07-23 19:19:01+00:00,228.2898,14.34,14.0,47.84626,-54.09684
2021-07-23 19:29:01+00:00,233.0847,14.3,14.0,47.84626,-54.09684
2021-07-23 19:39:01+00:00,237.7881,14.32,14.0,47.84626,-54.09684
2021-07-23 19:49:01+00:00,247.7364,14.3,14.0,47.84626,-54.09684
2021-07-23 19:59:01+00:00,254.8581,14.3,14.0,47.84626,-54.09684
2021-07-23 20:09:01+00:00,259.7131,14.39,14.0,47.84626,-54.09684
2021-07-23 20:19:01+00:00,269.8681,14.4,13.92,47.84626,-54.09684
2021-07-23 20:29:01+00:00,281.4964,14.4,13.92,47.84626,-54.09684
2021-07-23 20:39:01+00:00,284.573,14.4,13.92,47.84626,-54.09684
2021-07-23 20:49:01+00:00,293.048,14.4,13.92,47.84626,-54.09684
2021-07-23 20:59:01+00:00,306.683,14.4,13.92,47.84626,-54.09684
2021-07-23 21:09:01+00:00,314.5263,14.4,13.92,47.84626,-54.09684
2021-07-23 21:19:01+00:00,318.9547,14.4,13.68,47.84626,-54.09684
2021-07-23 21:29:01+00:00,331.98800000000006,14.4,13.68,47.84626,-54.09684
2021-07-23 21:39:01+00:00,344.2646,14.24,13.68,47.84626,-54.09684
2021-07-23 21:49:01+00:00,346.9479,14.32,13.68,47.84626,-54.09684
2021-07-23 21:59:01+00:00,353.7696,14.4,13.68,47.84626,-54.09684
2021-07-23 22:09:01+00:00,366.4146,14.2,13.68,47.84626,-54.09684
2021-07-23 22:19:01+00:00,368.1013,14.07,13.44,47.84626,-54.09684
2021-07-23 22:29:01+00:00,365.0546,14.1,13.44,47.84626,-54.09684
2021-07-23 22:39:01+00:00,374.5679,14.0,13.44,47.84626,-54.09684
2021-07-23 22:49:01+00:00,387.2413,13.99,13.44,47.84626,-54.09684
2021-07-23 22:59:01+00:00,384.9745,14.06,13.44,47.84626,-54.09684
2021-07-23 23:09:01+00:00,381.4946,14.0,13.44,47.84626,-54.09684
2021-07-23 23:19:01+00:00,390.9263,13.98,13.05,47.84626,-54.09684
2021-07-23 23:29:01+00:00,392.3462,13.99,13.05,47.84626,-54.09684
2021-07-23 23:39:01+00:00,385.6063,14.08,13.05,47.84626,-54.09684
2021-07-23 23:49:01+00:00,382.7229,14.1,13.05,47.84626,-54.09684
2021-07-23 23:59:01+00:00,385.4479,14.1,13.05,47.84626,-54.09684
